Date String (YYYY-MM-DD hh:mm:ss) UTC,Instrument flags,Ambient pressure (hPa),Sample flow (lpm),Bypass flow (lpm),Sample temperature (°C),Ambient temperature (°C),ASC tube jacket temperature (°C),LED temperature (°C),Box temperature (°C),Sample RH (%),Span deviation,Mass concentration (μg/m³),Mass concentration (μg/m³),Mass concentration (μg/m³)
DateTimeUTC,F1_M11,P_M11,Q1_M11,Q2_M11,T1_M11,T2_M11,T3_M11,T4_M11,T5_M11,U1_M11,ZSPAN_M11,X0_M11,X2_M11,X1_M11
2022-05-11 04:00:00,,0823.4,5.01,0.00,29.0,28.2,00.0,38.1,30.8,13.6,0000.0,0015.96,0004.74,0002.26
2022-05-11 04:01:00,,0823.3,5.00,0.00,29.0,28.2,00.0,38.1,30.8,13.6,0000.0,0016.57,0004.80,0002.30
2022-05-11 04:02:00,,0823.3,5.00,0.00,29.0,28.2,00.0,38.1,30.7,13.6,0000.0,0015.49,0004.75,0002.31
2022-05-11 04:03:00,,0823.3,4.99,0.00,29.0,28.2,00.0,38.0,30.7,13.6,0000.0,0015.15,0004.72,0002.31
2022-05-11 04:04:00,,0823.4,5.00,0.00,29.0,28.2,00.0,38.0,30.7,13.6,0000.0,0014.40,0004.68,0002.31
2022-05-11 04:05:00,,0823.4,5.00,0.00,29.0,28.2,00.0,38.0,30.7,13.6,0000.0,0013.83,0004.70,0002.30
2022-05-11 04:06:00,,0823.4,5.00,0.00,29.0,28.2,00.0,38.0,30.7,13.6,0000.0,0014.14,0004.72,0002.29
2022-05-11 04:07:00,,0823.4,5.01,0.00,29.0,28.2,00.0,38.0,30.7,13.6,0000.0,0015.00,0004.80,0002.29
2022-05-11 04:08:00,,0823.3,5.00,0.00,28.9,28.2,00.0,38.0,30.7,13.6,0000.0,0016.40,0004.82,0002.30
2022-05-11 04:09:00,,0823.3,4.99,0.00,28.9,28.2,00.0,38.0,30.7,13.6,0000.0,0017.20,0004.85,0002.28
2022-05-11 04:10:00,,0823.3,5.00,0.00,28.9,28.2,00.0,38.0,30.7,13.7,0000.0,0017.86,0004.86,0002.27
2022-05-11 04:11:00,,0823.2,4.99,0.00,28.9,28.3,00.0,38.0,30.7,13.6,0000.0,0018.13,0004.87,0002.26
2022-05-11 04:12:00,,0823.2,5.00,0.00,28.9,28.3,00.0,38.0,30.7,13.6,0000.0,0017.28,0004.89,0002.27
2022-05-11 04:13:00,,0823.2,4.99,0.00,28.9,28.2,00.0,38.0,30.7,13.6,0000.0,0017.62,0004.97,0002.28
2022-05-11 04:14:00,,0823.2,5.01,0.00,28.9,28.2,00.0,38.0,30.7,13.5,0000.0,0018.57,0005.01,0002.29
2022-05-11 04:15:00,,0823.2,5.01,0.00,28.9,28.2,00.0,38.0,30.7,13.5,0000.0,0019.61,0005.11,0002.30
2022-05-11 04:16:00,,0823.2,4.99,0.00,28.9,28.2,00.0,38.0,30.7,13.4,0000.0,0019.90,0005.11,0002.29
2022-05-11 04:17:00,,0823.3,4.99,0.00,28.9,28.2,00.0,38.0,30.6,13.4,0000.0,0020.97,0005.20,0002.30
2022-05-11 04:18:00,,0823.2,5.00,0.00,28.9,28.2,00.0,37.9,30.6,13.4,0000.0,0020.69,0005.18,0002.30
2022-05-11 04:19:00,,0823.2,4.99,0.00,28.9,28.2,00.0,37.9,30.6,13.5,0000.0,0020.43,0005.17,0002.31
2022-05-11 04:20:00,,0823.2,5.00,0.00,28.9,28.1,00.0,37.9,30.6,13.5,0000.0,0020.41,0005.17,0002.32
2022-05-11 04:21:00,,0823.2,5.00,0.00,28.9,28.2,00.0,37.9,30.6,13.4,0000.0,0020.25,0005.18,0002.34
2022-05-11 04:22:00,,0823.2,5.00,0.00,28.8,28.2,00.0,37.9,30.6,13.4,0000.0,0020.52,0005.23,0002.34
2022-05-11 04:23:00,,0823.1,5.01,0.00,28.8,28.2,00.0,37.9,30.6,13.4,0000.0,0021.35,0005.22,0002.33
2022-05-11 04:24:00,,0823.1,5.01,0.00,28.8,28.2,00.0,37.9,30.6,13.4,0000.0,0021.75,0005.20,0002.32
2022-05-11 04:25:00,,0823.1,4.99,0.00,28.9,28.2,00.0,37.9,30.6,13.4,0000.0,0021.02,0005.18,0002.32
2022-05-11 04:26:00,,0823.1,5.00,0.00,28.9,28.2,00.0,37.9,30.6,13.4,0000.0,0020.16,0005.17,0002.33
2022-05-11 04:27:00,,0823.1,5.01,0.00,28.9,28.2,00.0,37.9,30.7,13.5,0000.0,0019.99,0005.14,0002.34
2022-05-11 04:28:00,,0823.1,5.00,0.00,28.9,28.2,00.0,37.9,30.7,13.6,0000.0,0018.72,0005.08,0002.33
2022-05-11 04:29:00,,0823.1,5.00,0.00,28.9,28.2,00.0,37.9,30.7,13.7,0000.0,0018.69,0005.08,0002.33
2022-05-11 04:30:00,,0823.1,5.00,0.00,28.9,28.2,00.0,37.9,30.7,13.7,0000.0,0017.67,0005.06,0002.33
2022-05-11 04:31:00,,0823.1,4.99,0.00,28.9,28.2,00.0,37.9,30.6,13.4,0000.0,0017.23,0005.09,0002.34
2022-05-11 04:32:00,,0823.1,5.00,0.00,28.9,28.2,00.0,37.9,30.6,13.4,0000.0,0016.95,0005.13,0002.35
2022-05-11 04:33:00,,0823.1,5.00,0.00,28.8,28.1,00.0,37.9,30.6,13.3,0000.0,0016.81,0005.18,0002.35
2022-05-11 04:34:00,,0823.1,5.00,0.00,28.8,28.1,00.0,37.9,30.6,13.4,0000.0,0016.34,0005.19,0002.36
2022-05-11 04:35:00,,0823.2,5.00,0.00,28.8,28.1,00.0,37.9,30.6,13.4,0000.0,0015.65,0005.23,0002.35
2022-05-11 04:36:00,,0823.1,5.00,0.00,28.8,28.1,00.0,37.9,30.6,13.4,0000.0,0015.60,0005.27,0002.36
2022-05-11 04:37:00,,0823.1,5.00,0.00,28.8,28.0,00.0,37.9,30.6,13.3,0000.0,0015.45,0005.23,0002.35
2022-05-11 04:38:00,,0823.1,4.99,0.00,28.8,28.0,00.0,37.9,30.5,13.2,0000.0,0015.43,0005.22,0002.34
2022-05-11 04:39:00,,0823.1,5.00,0.00,28.8,28.0,00.0,37.8,30.5,13.1,0000.0,0015.12,0005.18,0002.36
2022-05-11 04:40:00,,0823.1,5.01,0.00,28.8,28.1,00.0,37.8,30.5,12.9,0000.0,0014.72,0005.15,0002.36
2022-05-11 04:41:00,,0823.1,5.01,0.00,28.8,28.1,00.0,37.8,30.5,12.8,0000.0,0015.84,0005.15,0002.35
2022-05-11 04:42:00,,0823.1,5.00,0.00,28.8,28.0,00.0,37.8,30.5,12.8,0000.0,0016.75,0005.20,0002.37
2022-05-11 04:43:00,,0823.2,5.00,0.00,28.8,28.0,00.0,37.8,30.5,12.8,0000.0,0016.77,0005.17,0002.36
2022-05-11 04:44:00,,0823.1,4.99,0.00,28.8,28.1,00.0,37.8,30.5,12.9,0000.0,0016.44,0005.10,0002.35
2022-05-11 04:45:00,,0823.1,5.00,0.00,28.8,28.1,00.0,37.8,30.6,13.0,0000.0,0016.39,0005.11,0002.37
2022-05-11 04:46:00,,0823.2,5.00,0.00,28.8,28.1,00.0,37.8,30.6,13.3,0000.0,0017.42,0005.05,0002.37
2022-05-11 04:47:00,,0823.2,4.99,0.00,28.8,28.1,00.0,37.8,30.6,13.3,0000.0,0018.00,0004.97,0002.36
2022-05-11 04:48:00,,0823.2,5.01,0.00,28.8,28.1,00.0,37.8,30.6,13.1,0000.0,0018.49,0005.02,0002.35
2022-05-11 04:49:00,,0823.3,5.01,0.00,28.8,28.1,00.0,37.8,30.6,13.2,0000.0,0018.38,0005.04,0002.35
2022-05-11 04:50:00,,0823.4,5.00,0.00,28.8,28.2,00.0,37.8,30.6,13.4,0000.0,0018.68,0005.10,0002.35
2022-05-11 04:51:00,,0823.3,4.99,0.00,28.8,28.2,00.0,37.8,30.6,13.7,0000.0,0019.61,0005.21,0002.38
2022-05-11 04:52:00,,0823.4,5.00,0.00,28.8,28.2,00.0,37.8,30.6,13.7,0000.0,0019.65,0005.25,0002.40
2022-05-11 04:53:00,,0823.4,5.01,0.00,28.8,28.2,00.0,37.8,30.6,13.2,0000.0,0019.13,0005.23,0002.37
2022-05-11 04:54:00,,0823.3,4.99,0.00,28.9,28.2,00.0,37.8,30.7,13.3,0000.0,0018.64,0005.21,0002.36
2022-05-11 04:55:00,,0823.4,4.99,0.00,28.9,28.3,00.0,37.8,30.7,13.3,0000.0,0019.33,0005.29,0002.37
2022-05-11 04:56:00,,0823.5,5.01,0.00,28.9,28.3,00.0,37.8,30.8,13.3,0000.0,0020.55,0005.28,0002.39
2022-05-11 04:57:00,,0823.6,5.00,0.00,28.9,28.3,00.0,37.8,30.8,13.1,0000.0,0020.56,0005.28,0002.40
2022-05-11 04:58:00,,0823.6,5.00,0.00,29.0,28.3,00.0,37.9,30.8,13.2,0000.0,0021.74,0005.35,0002.41
2022-05-11 04:59:00,,0823.7,5.00,0.00,29.0,28.4,00.0,37.9,30.8,13.4,0000.0,0021.97,0005.33,0002.41
